| time (UTC) | temp F | wind direction | speed knots | gust knots | rain 1hr in | rain 24hr in | rain mn in | humidity % | barometer mb |
| 20260506101602 | 56 | 192 | 3.5 | 7.0 | 0.00 | 0.00 | 0.00 | 89 | 1009.1 |
| 20260506100052 | 56 | 186 | 3.5 | 9.6 | 0.00 | 0.00 | 0.00 | 89 | 1009.1 |
| 20260506094556 | 56 | 184 | 3.5 | 8.7 | 0.00 | 0.00 | 0.00 | 89 | 1009.1 |
| 20260506093100 | 56 | 192 | 2.6 | 7.8 | 0.00 | 0.00 | 0.00 | 88 | 1009.0 |
| 20260506091558 | 56 | 197 | 4.3 | 8.7 | 0.00 | 0.00 | 0.00 | 88 | 1009.1 |
| 20260506090056 | 56 | 169 | 3.5 | 8.7 | 0.00 | 0.00 | 0.00 | 88 | 1009.0 |
| 20260506084554 | 56 | 203 | 3.5 | 7.8 | 0.00 | 0.00 | 0.00 | 87 | 1009.4 |
| 20260506083056 | 56 | 196 | 4.3 | 9.6 | 0.00 | 0.00 | 0.00 | 87 | 1009.3 |
| 20260506081556 | 57 | 199 | 2.6 | 9.6 | 0.00 | 0.00 | 0.00 | 87 | 1009.3 |
| 20260506073100 | 56 | 0 | 2.6 | 7.0 | 0.00 | 0.00 | 0.00 | 87 | 1009.4 |
| 20260506071610 | 56 | 205 | 2.6 | 6.1 | 0.00 | 0.00 | 0.00 | 87 | 1009.7 |
| 20260506070103 | 56 | 206 | 0.9 | 5.2 | 0.00 | 0.00 | 0.00 | 86 | 1009.7 |
| 20260506061557 | 57 | 221 | 4.3 | 8.7 | 0.00 | 0.00 | 0.00 | 84 | 1009.6 |
| 20260506044559 | 60 | 136 | 4.3 | 12.2 | 0.00 | 0.00 | 0.00 | 78 | 1010.0 |
| 20260506043053 | 60 | 180 | 4.3 | 11.3 | 0.00 | 0.00 | 0.00 | 77 | 1010.1 |
| 20260506041604 | 60 | 189 | 4.3 | 9.6 | 0.00 | 0.00 | 0.00 | 75 | 1010.0 |
| 20260506040054 | 61 | 215 | 4.3 | 9.6 | 0.00 | 0.00 | 0.00 | 73 | 1009.8 |
| 20260506034555 | 62 | 168 | 5.2 | 8.7 | 0.00 | 0.00 | 0.00 | 71 | 1010.0 |
| 20260506033054 | 62 | 205 | 4.3 | 7.8 | 0.00 | 0.00 | 0.00 | 70 | 1010.0 |
| 20260506031555 | 63 | 200 | 3.5 | 10.4 | 0.00 | 0.00 | 0.00 | 69 | 1009.8 |
| 20260506030052 | 63 | 173 | 5.2 | 11.3 | 0.00 | 0.00 | 0.00 | 68 | 1009.6 |
| 20260506024553 | 64 | 169 | 5.2 | 12.2 | 0.00 | 0.00 | 0.00 | 68 | 1009.8 |
| 20260506023052 | 64 | 169 | 4.3 | 10.4 | 0.00 | 0.00 | 0.00 | 67 | 1009.8 |
| 20260506021558 | 64 | 190 | 5.2 | 13.0 | 0.00 | 0.00 | 0.00 | 67 | 1009.7 |
| 20260506020054 | 65 | 221 | 7.0 | 12.2 | 0.00 | 0.00 | 0.00 | 66 | 1009.7 |
| 20260506014556 | 65 | 227 | 5.2 | 13.9 | 0.00 | 0.00 | 0.00 | 66 | 1009.8 |
| 20260506013053 | 65 | 209 | 7.0 | 13.9 | 0.00 | 0.00 | 0.00 | 65 | 1009.5 |
| 20260506011553 | 65 | 180 | 6.1 | 13.0 | 0.00 | 0.00 | 0.00 | 66 | 1009.3 |
| 20260506010055 | 65 | 182 | 7.0 | 14.8 | 0.00 | 0.00 | 0.00 | 66 | 1009.3 |
| 20260506004557 | 65 | 211 | 5.2 | 13.0 | 0.00 | 0.00 | 0.00 | 67 | 1008.9 |
| 20260506003054 | 65 | 213 | 4.3 | 12.2 | 0.00 | 0.00 | 0.00 | 67 | 1008.7 |
| 20260506001612 | 65 | 213 | 6.1 | 13.0 | 0.00 | 0.00 | 0.00 | 66 | 1008.6 |
| 20260506000053 | 65 | 234 | 7.8 | 15.6 | 0.00 | 0.00 | 0.00 | 66 | 1008.4 |
| 20260505234553 | 65 | 197 | 5.2 | 14.8 | 0.00 | 0.00 | 0.00 | 66 | 1008.3 |
| 20260505233056 | 66 | 225 | 7.8 | 15.6 | 0.00 | 0.00 | 0.00 | 65 | 1008.0 |
| 20260505231554 | 66 | 202 | 7.0 | 13.0 | 0.00 | 0.00 | 0.00 | 64 | 1007.9 |
| 20260505230110 | 67 | 218 | 6.1 | 13.9 | 0.00 | 0.00 | 0.00 | 62 | 1007.8 |
| 20260505224557 | 68 | 200 | 6.1 | 12.2 | 0.00 | 0.00 | 0.00 | 61 | 1007.6 |
| 20260505223058 | 68 | 216 | 7.0 | 13.9 | 0.00 | 0.00 | 0.00 | 61 | 1007.4 |
| 20260505221559 | 68 | 236 | 6.1 | 12.2 | 0.00 | 0.00 | 0.00 | 61 | 1007.7 |
| 20260505220056 | 68 | 200 | 7.8 | 15.6 | 0.00 | 0.00 | 0.00 | 60 | 1007.4 |
| 20260505214606 | 69 | 166 | 6.1 | 15.6 | 0.00 | 0.00 | 0.00 | 58 | 1007.3 |
| 20260505213100 | 71 | 196 | 4.3 | 16.5 | 0.00 | 0.00 | 0.00 | 57 | 1007.1 |
| 20260505211607 | 71 | 184 | 7.8 | 14.8 | 0.00 | 0.00 | 0.00 | 56 | 1007.0 |
| 20260505210106 | 72 | 167 | 7.8 | 19.1 | 0.00 | 0.00 | 0.00 | 55 | 1007.1 |
| 20260505204554 | 72 | 178 | 7.8 | 13.9 | 0.00 | 0.00 | 0.00 | 54 | 1007.1 |
| 20260505203054 | 73 | 181 | 7.0 | 14.8 | 0.00 | 0.00 | 0.00 | 54 | 1007.2 |
| 20260505201605 | 73 | 136 | 5.2 | 18.2 | 0.00 | 0.00 | 0.00 | 54 | 1007.3 |
| 20260505200053 | 73 | 142 | 8.7 | 16.5 | 0.00 | 0.00 | 0.00 | 54 | 1007.4 |
| 20260505194558 | 73 | 159 | 7.8 | 19.1 | 0.00 | 0.00 | 0.00 | 54 | 1007.7 |
| 20260505193054 | 72 | 172 | 8.7 | 16.5 | 0.00 | 0.00 | 0.00 | 54 | 1007.9 |
| 20260505191557 | 73 | 229 | 10.4 | 20.9 | 0.00 | 0.00 | 0.00 | 53 | 1007.9 |
| 20260505190111 | 74 | 181 | 6.1 | 14.8 | 0.00 | 0.00 | 0.00 | 53 | 1008.4 |
| 20260505184607 | 75 | 179 | 5.2 | 12.2 | 0.00 | 0.00 | 0.00 | 53 | 1008.6 |
| 20260505183054 | 75 | 128 | 5.2 | 19.1 | 0.00 | 0.00 | 0.00 | 53 | 1008.7 |
| 20260505181557 | 75 | 165 | 8.7 | 21.7 | 0.00 | 0.00 | 0.00 | 52 | 1008.7 |
| 20260505180055 | 76 | 188 | 8.7 | 16.5 | 0.00 | 0.00 | 0.00 | 51 | 1008.6 |
| 20260505174552 | 77 | 159 | 10.4 | 22.6 | 0.00 | 0.00 | 0.00 | 48 | 1008.7 |
| 20260505173056 | 78 | 161 | 6.1 | 15.6 | 0.00 | 0.00 | 0.00 | 45 | 1008.8 |
| 20260505171554 | 77 | 262 | 6.1 | 18.2 | 0.00 | 0.00 | 0.00 | 46 | 1008.9 |
| 20260505170105 | 76 | 214 | 7.8 | 17.4 | 0.00 | 0.00 | 0.00 | 47 | 1009.2 |
| 20260505164555 | 76 | 162 | 7.8 | 15.6 | 0.00 | 0.00 | 0.00 | 48 | 1009.3 |
| 20260505163107 | 75 | 180 | 7.0 | 13.0 | 0.00 | 0.00 | 0.00 | 50 | 1009.3 |
| 20260505161552 | 74 | 107 | 6.1 | 14.8 | 0.00 | 0.00 | 0.00 | 52 | 1009.7 |
| 20260505153107 | 74 | 219 | 4.3 | 11.3 | 0.00 | 0.00 | 0.00 | 51 | 1009.9 |
| 20260505151554 | 75 | 217 | 5.2 | 12.2 | 0.00 | 0.00 | 0.00 | 50 | 1010.0 |
| 20260505150111 | 75 | 234 | 3.5 | 10.4 | 0.00 | 0.00 | 0.00 | 49 | 1010.1 |
| 20260505140110 | 70 | 158 | 1.7 | 7.0 | 0.00 | 0.00 | 0.00 | 58 | 1010.2 |
| 20260505130110 | 64 | 133 | 2.6 | 6.1 | 0.00 | 0.00 | 0.00 | 68 | 1010.1 |
| 20260505124609 | 62 | 155 | 1.7 | 6.1 | 0.00 | 0.00 | 0.00 | 73 | 1010.1 |
| 20260505123114 | 60 | 151 | 0.9 | 5.2 | 0.00 | 0.00 | 0.00 | 78 | 1010.1 |
| 20260505121556 | 58 | 158 | 2.6 | 6.1 | 0.00 | 0.00 | 0.00 | 81 | 1010.4 |
| 20260505120056 | 57 | 0 | 0.0 | 4.3 | 0.00 | 0.00 | 0.00 | 83 | 1010.2 |
| 20260505114602 | 57 | 186 | 0.9 | 4.3 | 0.00 | 0.00 | 0.00 | 84 | 1010.4 |
| 20260505113055 | 56 | 0 | 0.0 | 1.7 | 0.00 | 0.00 | 0.00 | 87 | 1010.4 |
| 20260505111600 | 53 | 0 | 0.0 | 0.0 | 0.00 | 0.00 | 0.00 | 92 | 1010.3 |